Погода в Каспии

Россия / Астраханская область     46°03′06″N   48°21′38″E
темп.,
°C
ветер,
м/с
пор.,
м/с
влажн.,
%
обл.,
%
осадки,
мм/ч
давл.,
гПа
погр.,
м
22 апреля, чт
чт2201:00+13зсз488097 0.2 1019234
04:00+13ссз4981100 0.6 1020242
07:00+13ссз4867100 0.0 1020355
10:00+15с5753100 0.0 1021486
13:00+15с7104999 0.0 1022636
16:00+18ссв794441 0.0 1021830
19:00+15с6867100 0.0 1021552
22:00+12с5107775 0.0 1021305
23 апреля, пт
пт2301:00+11с4871100 0.0 1020238
04:00+10с6116383 0.3 1018340
07:00+10ссз5962100 0.0 1018361
10:00+11сз61055100 0.0 1019490
13:00+12сз61049100 0.0 1019681
16:00+16сз8114583 0.0 10181604
19:00+15сз594934 0.0 1019627
22:00+12сз246197 0.0 101977
24 апреля, сб
сб2401:00+10з22711 0.0 101811
04:00+10з33865 0.0 101834
07:00+11з2481100 0.0 1019131
10:00+16з3455100 0.0 1020784
13:00+20зсз45335 0.0 10181690
16:00+22з45285 0.0 10182157
19:00+17ююз68486 0.0 1019411
22:00+14ююз497122 0.0 1019249
25 апреля, вс
вс2501:00+14юз3869100 0.0 1020359
04:00+13зюз2270100 0.0 102029
07:00+14ссз2475100 0.0 1021198
10:00+17ссз115598 0.0 1021950
13:00+21вюв2340100 0.0 10202021
16:00+20вюв4439100 0.0 10181361
19:00+18всв344385 0.0 1017469
22:00+14с61067100 0.0 1017382
26 апреля, пн
пн2601:00+13ссв51175100 0.0 1015427
04:00+12с61163100 0.0 1014394
07:00+12с61271100 0.0 1014518
10:00+15с6757100 0.0 1014852
13:00+13ссз7870100 0.7 1016594
16:00+12сз6872100 1.2 1017756
19:00+12сз6866100 0.0 1017813
22:00+10сз3773100 0.0 1018248